Location: Ammerl�gen
(47.2167°N, 9.6000°E)
Time: 14:59:26
(UTC+00:00)

Tiangong - Visible Passes

Search period start: 25 September 2021 00:00
Search period end: 05 October 2021 00:00
Orbit: 382 x 385 km, 41.5° (Epoch: 25 September)

Date Brightness Start Highest point End Pass type
(mag) Time Alt. Az. Time Alt. Az. Time Alt. Az.
27 Sep 3.3 04:36:43 10° SSW 04:39:01 19° SSE 04:41:19 10° ESE visible
28 Sep 3.5 03:38:25 13° S 03:39:19 14° SSE 03:41:02 10° SE visible
29 Sep 2.9 04:13:39 13° SW 04:15:48 23° SSE 04:18:23 10° ESE visible
30 Sep 3.3 03:16:39 18° SSE 03:16:39 18° SSE 03:18:21 10° ESE visible
01 Oct 2.5 03:51:49 24° SSW 03:52:34 27° S 03:55:19 10° ESE visible
02 Oct 3.9 02:54:46 14° ESE 02:54:46 14° ESE 02:55:23 10° ESE visible
02 Oct 2.5 04:26:58 14° WSW 04:29:09 27° S 04:31:54 10° SE visible
03 Oct 2.6 03:29:55 26° SSE 03:29:55 26° SSE 03:32:08 10° ESE visible
04 Oct 2.5 04:05:07 21° SW 04:05:53 24° SSW 04:08:31 10° SE visible
